User: anonymous   Login
Location: Unspecified
(0.0000°N, 0.0000°E)
Time: 15:09:40
(UTC+00:00)
Language:

FENGYUN 1C DEB - Orbit

View from above orbital plane
View from above orbital plane
View from above satellite
View from above satellite

Ground track
Ground track

The orbit data is extracted from the following two-line orbital elements,

1 31984U 99025CPM 24049.29790290  .00001646  00000-0  76427-3 0  9993
2 31984  98.5741  66.7765 0064902 354.7049   5.3434 14.20892231849441
Epoch (UTC): 18 February 2024 07:08:58
Eccentricity: 0.0064902
inclination: 98.5741°
perigee height: 775 km
apogee height: 869 km
right ascension of ascending node: 66.7765°
argument of perigee: 354.7049°
revolutions per day: 14.20892231
mean anomaly at epoch: 5.3434°
orbit number at epoch: 84944

The dashed part of the orbit path shows where the satellite is in the earth's shadow,  

DLR